Location: Allie Creek
(37.5926°N, 89.8526°W)
Time: 19:12:45
(UTC+00:00)

Cosmos 2333 Rocket - Pass Details

Date: 26 September 2023
Orbit: 837 x 864 km, 70.8° (Epoch: 08 December)

Event Time Altitude Azimuth Distance (km) Brightness Sun altitude
Rises 00:25:25 0° 199° (SSW) 3,372 5.5 -7.5°
Reaches altitude 10° 00:27:50 10° 198° (SSW) 2,441 4.8 -7.9°
Maximum altitude 00:33:27 85° 112° (ESE) 846 2.2 -9.0°
Drops below altitude 10° 00:39:06 10° 24° (NNE) 2,463 4.5 -10.2°
Sets 00:41:34 0° 24° (NNE) 3,405 5.2 -10.6°
